Weather History for KMKC - February, 2014

Change the Weather History Date:

Tuesday, February 18, 2014

  Actual Average (KMCI) Record (KMCI)
Temperature  
Mean Temperature 55 °F 34 °F  
Max Temperature 66 °F 44 °F 74 °F (1930)
Min Temperature 44 °F 25 °F -7 °F (1903)
Degree Days  
Heating Degree Days 10 31  
Month to date heating degree days 597  
Since 1 July heating degree days 3761  
Cooling Degree Days 0 0  
Month to date cooling degree days 0  
Year to date cooling degree days 0  
Growing Degree Days 5 (Base 50)    
Moisture  
Dew Point 28 °F    
Average Humidity 38    
Maximum Humidity 50    
Minimum Humidity 24    
Precipitation  
Precipitation 0.00 in 0.06 in 1.43 in (1955)
Month to date precipitation 0.90  
Year to date precipitation 1.97  
Snow  
Snow 0.00 in 0.20 in 9.80 in (1926)
Month to date snowfall 3.8  
Since 1 July snowfall 14.6  
Snow Depth -    
Sea Level Pressure  
Sea Level Pressure 29.82 in    
Wind  
Wind Speed 12 mph (SW)    
Max Wind Speed 29 mph    
Max Gust Speed 41 mph    
Visibility 10 miles    
Events Rain    
T = Trace of Precipitation, MM = Missing Value Source: NWS Daily Summary

Daily Weather History Graph

Daily Weather History Graph

Search for Another Location

Airport or City:

Trip Planner

Search our weather history database for the weather conditions in past years. The results will help you decide how hot, cold, wet, or windy it might be!

Date:

Astronomy

Feb. 18, 2014 Rise Set
Actual Time 7:06 AM CST 5:59 PM CST
Civil Twilight 6:38 AM CST 6:26 PM CST
Nautical Twilight 6:07 AM CST 6:57 PM CST
Astronomical Twilight 5:36 AM CST 7:28 PM CST
Moon 9:51 PM CST (2/18) 8:40 AM CST (2/18)
Length of Visible Light 11h 47m
Length of Day
10h 52m
Waning Gibbous, 87% of the Moon is Illuminated
Feb 18
Waning Gibbous
Feb 22
Last Quarter
Mar 1
New
Mar 8
First Quarter
Mar 16
Full

Hourly Weather History & Observations

Time (CST) Temp. Windchill Dew Point Humidity Pressure Visibility Wind Dir Wind Speed Gust Speed Precip Events Conditions
12:54 AM 46.9 °F - 24.1 °F 41% 29.97 in 10.0 mi SW 6.9 mph - N/A   Clear
1:54 AM 46.9 °F - 24.1 °F 41% 29.95 in 10.0 mi SW 10.4 mph - N/A   Clear
2:54 AM 46.0 °F 40.2 °F 25.0 °F 44% 29.92 in 10.0 mi SSW 12.7 mph - N/A   Clear
3:54 AM 48.0 °F - 25.0 °F 41% 29.88 in 10.0 mi SSW 15.0 mph - N/A   Clear
4:54 AM 46.9 °F - 25.0 °F 42% 29.87 in 10.0 mi SSW 15.0 mph - N/A   Clear
5:54 AM 46.0 °F 39.6 °F 25.0 °F 44% 29.86 in 10.0 mi SSW 15.0 mph - N/A   Clear
6:54 AM 44.1 °F 38.1 °F 25.0 °F 47% 29.83 in 10.0 mi South 11.5 mph - N/A   Clear
7:54 AM 44.1 °F 38.6 °F 26.1 °F 49% 29.84 in 10.0 mi SSW 10.4 mph - N/A   Clear
7:58 AM 44.1 °F 38.1 °F 26.1 °F 49% 29.83 in 10.0 mi SSW 11.5 mph - N/A   Clear
8:54 AM 48.0 °F - 27.0 °F 44% 29.82 in 10.0 mi SSW 8.1 mph - N/A   Clear
9:54 AM 52.0 °F - 27.0 °F 38% 29.82 in 10.0 mi SSW 12.7 mph - N/A   Clear
10:54 AM 57.0 °F - 28.0 °F 33% 29.78 in 10.0 mi SSW 17.3 mph 25.3 mph N/A   Clear
11:54 AM 60.1 °F - 28.0 °F 30% 29.75 in 10.0 mi SSW 28.8 mph 41.4 mph 0.00 in Rain Light Rain
12:54 PM 61.0 °F - 28.9 °F 30% 29.72 in 10.0 mi SW 23.0 mph 32.2 mph 0.00 in Rain Light Rain
1:54 PM 64.0 °F - 28.9 °F 27% 29.70 in 10.0 mi SW 15.0 mph 21.9 mph 0.00 in   Clear
2:54 PM 66.0 °F - 28.0 °F 24% 29.71 in 10.0 mi West 18.4 mph 28.8 mph N/A   Clear
3:54 PM 66.0 °F - 28.9 °F 25% 29.71 in 10.0 mi WSW 12.7 mph 21.9 mph N/A   Clear
4:54 PM 64.9 °F - 30.0 °F 27% 29.71 in 10.0 mi SW 12.7 mph - N/A   Clear
5:54 PM 60.1 °F - 30.9 °F 33% 29.72 in 10.0 mi SSW 8.1 mph - N/A   Clear
6:54 PM 59.0 °F - 30.9 °F 35% 29.75 in 10.0 mi SW 10.4 mph - N/A   Clear
7:54 PM 57.9 °F - 30.9 °F 36% 29.80 in 10.0 mi West 10.4 mph 19.6 mph N/A   Clear
8:15 PM 57.9 °F - 28.9 °F 33% 29.82 in 10.0 mi NW 17.3 mph 24.2 mph N/A   Clear
8:54 PM 55.0 °F - 28.9 °F 37% 29.87 in 10.0 mi NNW 10.4 mph 21.9 mph N/A   Clear
9:54 PM 51.1 °F - 28.9 °F 43% 29.92 in 10.0 mi NNW 6.9 mph - N/A   Clear
10:54 PM 48.0 °F - 28.9 °F 48% 29.94 in 10.0 mi WNW 3.5 mph - N/A   Clear
11:54 PM 46.9 °F - 28.9 °F 50% 29.94 in 10.0 mi Calm Calm - N/A   Clear